OPS 4682 DEB, 18965

Orbit data source: Space-Track

OPS 4682 DEB, 18965 is space debris in LEO originally from a launch on Sat, 03 Apr 1965 UTC launched from the Air Force Western Test Range (AFWTR). Debris objects in space refer to the collection of defunct objects orbiting the Earth. Examples of debris include non-operational satellites, rocket bodies, and fragments generated from explosions, collisions, or faulty payload assembly.

Loading next visibility...
Identifier
18965, 1965-027AN
Orbit
LEO
Country
Flag of USUS
Related business
Manufacturer
Unknown
Mission
Spacecraft
Bus & Motor
Unknown
Mass
Unknown
Launch date (UTC)
1965-04-03 (61 years ago)
Launch vehicle
Unknown
Launch site
Air Force Western Test Range (AFWTR)
Object type
Payload
Rocket body
Debris
Shape & HBR
Unknown shape, 0.1 m
Radar Cross Section
Small (<0.1 m²)

Expand to show TLE details & history
Last TLE update: 14 hours ago

TLE from 14 hours ago
0 OPS 4682 DEB
1 18965U 65027AN  26119.93349075  .00000459  00000-0  14998-2 0  9999
2 18965  90.2773  24.7943 0040809 205.7024 286.4990 12.99786530944228
Epoch: 2026-04-29T22:24Z
TLE epoch observation values (Epoch: 2026-04-29T22:24:13.600Z)
Latitude
48.33704°
Longitude
11.16037°
Altitude
1,261.79 km
Speed
7.233 km/s
True Right ascension
13h 40m 25s
True Declination
48° 10' 39"
Sunlit
Object was in daylight at epoch
Visualization orbit readout
Latitude
Unknown
Longitude
Unknown
Altitude
Unknown
Speed
Unknown
Apparent Right ascension
Unknown
Apparent Declination
Unknown
Sunlit
N/A
Visualization observer readout
Local Sidereal Time
19:56:03
Azimuth
Unknown
Elevation
Unknown
Doppler factor
Unknown
Orbital elements
Apogee altitude
1,291.221 km
Perigee altitude
1,228.88 km
Semi-major axis
7,638.187 km
Eccentricity
0.00408
Inclination
90.2773°
RAAN
24.7943°
Arg. of periapsis
205.7024°
True anomaly
286.04997°
Mean anomaly
286.499°
Eccentric anomaly
286.27455°
Mean motion
3.2513 °/min
Orbital period
110.72 mins
BSTAR
0.0014998
Loading maneuver chart data...
Computing Atmospheric mass density...
Loading historical data...
Loading historical data...
Loading historical data...
Loading historical data...
Loading historical data...
Loading historical data...
Loading historical data...

Documentation

Showing up to 5 results
|